Probability
0 0 0 0 0 0 0 0 0 0 0 0 0 0 0 0 0 0 0 0 0 0 0 0 1 1 1 0 0 1 2 2 1 2 3 5 9 11 9 6 3 2 2 1
0 0 0 0 0 0 0 0 0 0 0 0 0 0 0 0 0 0 0 0 0 0 0 0 0 0 0 0 0 0 1 1 0 1 1 3 6 8 7 5 3 1 1 0
0 0 0 0 0 0 0 0 0 0 0 0 0 0 0 0 0 0 0 0 0 0 0 0 0 0 0 0 0 0 0 0 0 0 0 1 3 3 3 3 2 1 0 0
0 0 0 0 0 0 0 0 0 0 0 0 0 1 1 1 0 0 0 0 0 0 0 0 0 0 0 0 0 0 0 0 1 1 0 0 0 0 0 1 1 0 0 0
0 0 0 0 0 0 0 0 0 0 0 0 0 1 2 2 0 0 0 0 0 0 0 0 0 0 0 0 0 0 0 0 1 1 0 0 0 0 0 0 0 0 0 0
0 0 0 0 0 0 0 0 0 0 0 0 0 1 4 4 1 0 0 0 0 0 0 0 0 0 0 0 0 0 0 0 1 1 0 0 0 0 0 0 0 0 0 0
0 0 0 0 0 0 0 0 0 0 0 0 0 2 5 4 1 0 0 0 0 0 0 0 0 0 0 0 0 0 0 0 0 0 0 0 0 0 0 0 0 0 0 0
0 0 0 0 0 0 0 0 0 0 0 0 0 3 4 3 0 0 0 0 0 0 0 0 0 0 0 0 0 0 0 0 0 0 0 0 0 1 1 1 0 0 0 0
0 0 0 0 0 0 0 0 0 0 0 0 1 2 2 1 0 0 0 0 0 0 0 0 0 0 0 0 0 0 0 0 0 0 0 0 0 1 2 1 1 1 1 0
0 0 0 0 0 0 0 0 0 0 0 0 0 1 0 0 0 0 0 0 0 0 0 0 0 0 0 0 0 0 0 0 0 0 0 0 0 1 1 1 1 1 2 1
0 0 0 0 0 0 0 0 0 0 0 0 0 0 0 0 0 0 0 0 0 0 0 0 0 0 0 0 0 0 0 0 0 0 0 0 0 0 0 0 0 1 2 1
0 0 0 0 0 0 0 0 0 0 0 0 0 0 0 0 0 0 0 0 0 0 0 0 0 0 0 0 0 0 0 0 0 0 0 0 0 0 0 0 0 0 1 1
0 0 0 0 0 0 0 0 0 0 0 0 0 0 0 0 0 0 0 0 0 0 0 0 0 0 0 0 0 0 0 0 0 0 0 0 0 0 0 0 0 0 0 1
0 0 0 0 0 0 0 0 0 0 0 0 0 0 0 0 0 0 0 0 0 0 0 0 0 0 0 0 0 0 0 0 0 0 0 0 0 0 0 0 0 0 0 0
0 0 0 0 0 0 0 0 0 0 0 0 0 0 0 0 0 0 0 0 0 0 0 0 0 0 0 0 0 0 0 0 0 0 0 0 0 0 0 0 0 0 0 0
0 0 0 0 0 0 0 0 0 0 0 0 0 0 0 0 0 0 0 0 0 0 0 0 0 0 0 0 0 0 0 0 0 0 0 0 0 0 0 0 0 0 0 0
0 0 0 0 0 0 0 0 0 0 0 0 0 0 0 0 0 0 0 0 0 0 0 0 0 0 0 0 0 0 0 0 0 0 0 0 0 0 0 0 0 0 0 0
0 0 0 0 0 0 0 0 0 0 0 0 0 0 0 0 0 0 0 0 0 0 0 0 0 0 0 0 0 0 0 0 0 0 0 0 0 0 0 0 0 0 0 0
0 0 0 0 0 0 0 0 0 0 0 0 0 0 0 0 0 0 0 0 0 0 0 0 0 0 0 0 0 0 0 0 0 0 0 0 0 0 0 0 0 0 0 0
0 0 0 0 0 0 0 0 0 0 0 0 0 0 0 0 0 0 0 0 0 0 0 0 0 0 0 0 0 0 0 0 0 0 0 0 0 0 0 0 0 0 0 0
0 0 0 0 0 0 0 0 0 0 0 0 0 0 0 0 0 0 0 0 0 0 0 0 0 0 0 0 0 0 0 0 0 0 0 0 0 0 0 0 0 0 0 0
0 0 0 0 0 0 0 0 0 0 0 0 0 0 0 0 0 0 0 0 0 0 0 0 0 0 0 0 0 0 0 0 0 0 0 0 0 0 0 0 0 0 0 0
0 0 0 0 0 0 0 0 0 0 0 0 0 0 0 0 0 0 0 0 0 0 0 0 0 0 0 0 0 0 0 0 0 0 0 0 0 0 0 0 0 0 0 0
0 0 0 0 0 0 0 0 0 0 0 0 0 0 0 0 0 0 0 0 0 0 0 0 0 0 0 0 0 0 0 0 0 0 0 0 0 0 0 0 0 0 0 0
0 0 0 0 0 0 0 0 0 0 0 0 0 0 0 0 0 0 0 0 0 0 0 0 0 0 0 0 0 0 0 0 0 0 0 0 0 0 0 0 0 0 0 0
0 0 0 0 0 0 0 0 0 0 0 0 0 0 0 0 0 0 0 0 0 0 0 0 0 0 0 0 0 0 0 0 0 0 0 0 0 0 0 0 0 0 0 0
Wind_Speed
4 7 2 2 4 4 3 2 4 8 5 7 11 10 8 6 7 7 7 7 8 8 7 6 5 5 5 5 5 6 8 8 7 7 8 8 7 6 6 5 7 7 6 5
7 3 3 3 2 4 4 4 6 8 6 5 10 10 8 6 7 6 6 7 7 6 6 5 5 5 6 6 6 6 7 8 8 7 6 6 7 6 5 6 6 8 8 6
3 4 2 4 3 4 5 4 3 8 8 8 11 10 8 8 7 6 6 5 5 5 4 4 4 4 5 6 7 7 8 8 8 8 7 7 6 6 5 7 6 8 9 8
2 1 3 6 3 5 3 1 2 10 11 8 10 5 9 8 7 6 5 5 4 3 2 3 4 5 6 7 7 8 8 9 8 9 8 10 8 8 7 6 6 7 7 7
1 2 4 4 3 5 3 1 4 9 9 5 7 5 9 7 6 6 4 3 1 0 2 4 5 7 8 9 9 9 9 9 10 9 9 9 10 8 7 7 6 6 5 5
2 1 3 4 2 1 2 3 5 8 9 7 3 5 7 5 3 4 4 3 2 3 4 6 7 8 9 9 9 9 10 10 11 11 11 11 11 11 11 10 9 7 5 4
4 5 3 3 3 4 4 7 6 7 7 2 4 3 7 5 2 1 2 3 3 5 6 8 10 10 10 11 11 11 12 12 12 12 12 12 12 12 13 12 10 9 8 6
1 4 6 7 6 4 3 7 7 8 6 1 5 3 7 4 1 2 3 4 5 6 8 10 11 11 11 11 12 12 13 13 13 13 12 12 13 11 11 11 11 11 10 9
5 3 5 6 6 5 2 3 6 7 6 5 3 7 7 4 2 3 4 5 6 7 9 11 12 11 11 12 13 13 13 14 14 14 14 13 13 12 13 13 13 12 10 10
5 1 4 1 1 7 6 4 4 6 6 6 2 4 4 4 1 2 4 6 7 9 11 13 13 12 12 13 14 14 14 14 15 15 14 12 14 14 14 14 14 14 14 13
4 3 3 3 6 8 3 3 5 4 6 8 7 4 6 3 3 5 6 7 9 12 14 13 13 12 14 15 15 15 15 15 15 15 14 14 14 15 15 14 14 14 14 14
4 5 2 6 5 3 6 6 6 6 4 5 8 4 7 2 3 5 8 9 12 13 14 14 14 14 15 16 16 16 16 16 16 15 15 15 15 15 15 16 15 15 14 14
3 3 4 8 7 4 3 5 4 4 4 5 7 5 5 2 5 7 9 12 13 14 14 14 14 15 15 16 16 16 16 16 16 16 16 16 16 16 16 16 16 15 15 15
4 4 6 7 6 3 1 2 3 6 6 7 7 11 9 8 8 9 11 14 14 14 13 14 15 15 15 16 16 16 16 16 16 16 16 16 16 16 16 16 16 16 15 16
4 2 2 3 2 2 2 1 1 4 6 8 11 12 12 10 8 10 12 14 15 14 14 15 16 16 16 16 15 15 16 15 15 16 16 16 16 16 16 16 16 16 16 16
1 1 2 3 2 3 6 5 4 3 5 8 10 11 6 5 8 11 14 15 14 14 15 16 17 17 17 16 16 16 16 15 15 16 17 17 17 17 17 16 16 16 16 16
3 3 5 4 2 7 9 8 6 4 6 8 10 12 10 11 12 14 15 14 14 15 16 17 17 17 16 16 16 16 16 16 16 16 16 17 17 17 17 17 17 17 16 16
4 5 5 5 4 8 4 5 2 5 8 7 9 11 10 11 12 13 11 10 13 15 16 17 16 17 16 16 15 15 15 15 16 16 16 16 17 17 17 17 17 17 15 14
4 5 6 6 9 9 5 6 3 6 9 4 8 10 10 11 13 8 3 8 13 15 15 15 16 17 16 15 15 15 15 15 16 16 16 17 17 17 18 17 17 15 14 14
5 6 8 8 10 9 2 8 3 4 5 1 5 8 10 11 11 8 10 13 14 14 14 15 15 16 15 14 14 15 16 16 16 16 16 17 17 17 17 17 16 14 13 13
7 7 9 10 10 7 8 9 5 6 8 4 5 7 8 9 10 13 15 14 14 15 15 15 15 14 14 14 14 15 15 15 15 15 16 17 16 16 16 15 13 13 12 11
7 7 6 6 8 3 11 8 5 6 3 3 5 6 7 9 11 12 13 13 14 15 15 15 14 15 14 13 13 14 15 15 15 15 16 16 16 15 13 14 13 12 10 10
6 6 5 5 5 3 8 7 3 3 5 5 5 5 7 9 11 12 13 13 14 15 15 14 15 16 14 13 13 14 15 15 15 15 15 15 15 14 12 12 12 10 8 6
5 2 6 7 8 5 8 9 8 7 7 5 4 5 7 9 11 12 12 12 13 14 14 14 15 15 15 15 14 14 14 14 14 14 14 13 13 13 11 9 8 8 7 6
8 5 8 10 10 7 9 10 9 7 7 6 5 5 6 8 10 11 11 12 13 13 13 14 14 15 15 15 14 14 13 13 14 14 13 12 12 11 10 9 7 7 6 5
9 9 10 9 6 7 5 5 6 8 8 7 6 6 6 7 9 11 11 11 12 13 14 14 15 15 15 15 14 14 13 13 13 12 11 10 9 9 9 8 6 2 2 3
Wind_Direction
217 235 218 25 346 343 310 275 107 104 108 94 104 102 92 90 90 91 91 89 87 83 85 79 72 64 60 45 32 23 16 16 4 3 351 346 341 335 337 342 349 339 328 306
215 199 40 342 287 241 235 223 132 120 132 130 123 111 106 98 92 91 98 100 98 95 89 78 68 60 45 36 21 12 10 7 358 1 343 337 334 330 338 342 350 349 343 335
294 50 2 277 250 237 230 260 162 149 150 156 148 135 134 125 122 119 112 107 98 87 76 65 47 35 24 17 5 0 353 347 349 342 333 338 331 328 349 351 356 354 347 348
273 41 298 279 265 280 246 8 194 164 184 178 218 173 145 145 143 137 134 132 115 95 64 30 5 1 356 352 348 346 339 335 332 324 331 333 328 331 338 333 344 341 348 352
336 346 303 289 347 317 20 20 199 193 221 195 205 227 139 164 166 155 152 149 135 24 338 338 336 337 337 337 337 337 335 329 325 319 310 304 308 316 316 320 322 320 333 341
14 28 334 345 357 21 131 165 175 208 227 222 183 241 144 155 154 157 173 194 249 297 310 318 322 325 327 328 330 332 332 328 324 316 309 300 300 300 302 302 305 304 308 310
122 106 70 342 254 172 233 250 243 226 225 183 148 218 99 101 107 213 229 236 268 291 303 314 320 324 324 326 328 327 326 324 321 315 308 301 297 293 286 285 290 292 293 290
339 85 46 19 350 326 321 295 300 303 309 112 171 140 104 103 124 253 265 275 282 296 314 320 322 320 320 322 325 325 326 322 319 315 311 305 297 290 290 292 295 291 286 287
354 60 78 46 33 331 310 345 340 294 291 289 141 122 135 162 199 244 266 280 292 309 317 320 321 318 321 322 323 323 322 319 318 317 314 302 298 297 296 296 285 281 281 279
349 306 95 91 178 59 22 353 302 309 321 307 271 184 140 147 306 290 289 298 308 315 317 322 322 320 321 319 320 320 318 318 315 313 313 312 311 304 298 292 291 290 287 281
341 294 115 106 38 22 27 34 347 335 341 321 322 51 83 28 341 318 311 314 320 321 323 324 322 322 320 319 321 321 320 318 316 316 315 311 307 305 301 294 289 286 283 281
358 315 86 92 88 41 48 22 354 335 351 318 308 54 106 18 323 306 309 318 322 322 322 321 322 321 320 321 321 320 319 316 315 315 312 308 306 303 300 297 297 293 285 278
5 295 206 168 167 151 73 52 26 343 298 315 314 9 111 279 285 290 305 318 323 323 321 319 319 320 319 319 318 317 314 314 315 313 310 308 306 306 304 302 298 294 288 281
305 9 345 10 27 26 113 78 15 322 330 326 331 328 330 320 302 305 317 321 321 319 317 317 318 317 317 316 315 313 312 314 312 311 308 306 305 305 303 301 298 294 289 284
285 56 39 34 20 291 279 217 322 344 343 323 330 321 327 340 329 319 316 318 317 317 317 318 317 317 316 315 315 313 312 312 312 309 306 306 307 305 302 299 297 294 290 285
319 318 247 214 211 257 257 236 245 287 310 313 312 320 359 333 307 311 318 321 317 318 319 319 317 317 316 316 314 313 312 312 311 307 307 308 306 305 303 301 298 294 289 286
207 242 276 290 190 261 252 218 226 286 321 310 313 328 334 311 316 320 320 318 317 319 319 318 318 316 315 314 314 312 312 312 310 307 305 306 306 305 304 302 301 297 293 290
234 247 272 294 257 270 60 108 211 289 303 297 296 310 319 316 317 304 298 308 317 317 317 317 316 315 314 315 315 314 312 311 309 306 307 308 307 305 305 302 300 298 295 290
240 241 274 284 284 289 146 173 215 288 305 309 307 313 316 321 307 305 28 322 316 315 315 314 314 314 315 315 317 315 312 311 308 308 310 310 309 306 304 302 300 298 295 289
190 229 259 271 290 297 81 130 132 271 274 42 302 307 316 319 311 342 351 327 321 319 317 316 314 313 314 319 320 315 313 312 310 311 310 309 308 305 303 302 302 299 296 289
215 223 248 269 276 285 115 137 185 274 351 7 309 308 310 315 312 319 321 320 319 318 317 315 314 313 318 320 318 312 311 310 312 311 308 308 308 306 304 305 304 303 299 293
267 264 249 267 273 300 133 163 240 323 347 304 300 301 307 308 309 312 315 316 317 319 319 320 317 316 319 320 319 313 311 312 312 310 309 309 311 310 311 310 308 307 305 300
251 294 299 277 301 73 181 212 247 293 283 288 289 302 309 308 312 315 317 318 320 320 320 319 318 317 319 324 323 314 313 314 313 311 310 310 313 312 313 314 315 316 314 307
213 196 259 264 269 239 220 232 244 246 260 273 276 294 305 308 313 316 318 319 320 321 321 321 321 320 321 324 322 316 314 316 314 312 312 312 314 315 319 318 319 321 318 314
295 227 250 258 273 263 231 229 235 232 233 242 249 276 300 307 310 316 316 318 320 320 321 321 320 319 320 322 321 320 321 320 317 313 312 313 315 318 315 319 327 327 337 345
256 243 250 267 271 244 241 194 206 214 221 230 248 273 291 300 307 313 314 317 318 319 320 319 321 322 323 322 321 322 325 323 318 314 314 313 316 316 315 321 330 359 322 358